Location: Stull Observatory
(42.2506°N, 77.7903°W)
Time: 18:26:11
(UTC-05:00)

Okean O Rocket - Visible Passes

Search period start: 01 March 2015 00:00
Search period end: 11 March 2015 01:00
Orbit: 625 x 645 km, 98.0° (Epoch: 28 February)

Date Brightness Start Highest point End Pass type
(mag) Time Alt. Az. Time Alt. Az. Time Alt. Az.
03 Mar 4.4 03:45:39 10° N 03:45:44 10° N 03:45:44 10° N visible
04 Mar 4.2 04:07:58 10° N 04:08:10 11° N 04:08:10 11° N visible
05 Mar 4.2 04:30:32 10° NNW 04:30:36 10° NNW 04:30:36 10° NNW visible
06 Mar 4.6 03:15:20 10° NNE 03:15:32 11° NNE 03:15:32 11° NNE visible
07 Mar 4.2 03:37:23 10° N 03:37:58 14° N 03:37:58 14° N visible
08 Mar 4.0 04:59:37 10° N 05:00:24 15° N 05:00:24 15° N visible
09 Mar 3.9 05:22:04 10° NNW 05:22:50 14° NNW 05:22:50 14° NNW visible
10 Mar 4.4 04:07:09 10° NNE 04:07:46 14° NNE 04:07:46 14° NNE visible
10 Mar 3.9 05:44:54 10° NNW 05:45:15 11° NNW 05:45:15 11° NNW visible
